User: anonymous   Login
Location: Unspecified
(0.0000°N, 0.0000°E)
Time: 07:40:57
(UTC+02:00)
Language:

Meteor PRIRODA - Orbit

View from above orbital plane
View from above orbital plane
View from above satellite
View from above satellite

Ground track
Ground track

The orbit data is extracted from the following two-line orbital elements,

1 12585U 81065A   17179.55507689 +.00000526 +00000-0 +27309-4 0  9999
2 12585 097.4313 158.6940 0014970 007.1973 352.9474 15.20350318958184
Epoch (UTC): 28 June 2017 13:19:18
Eccentricity: 0.0014970
inclination: 97.4313°
perigee height: 494 km
apogee height: 515 km
right ascension of ascending node: 158.6940°
argument of perigee: 7.1973°
revolutions per day: 15.20350318
mean anomaly at epoch: 352.9474°
orbit number at epoch: 95818

The dashed part of the orbit path shows where the satellite is in the earth's shadow,  

DLR